Flight Track Log - Related Links

Times and Time Zones

All times are in EDT time to prevent confusion due to time zone crossing. See the SWA3497 flight status page for this flight to view local times or setup timezone preferences in your user account.


Time Position Orientation Groundspeed Altitude Reporting Facility
EDT Latitude Longitude Course Direction KTS MPH feet Rate Location/Type
Thu 02:33:17 PM 38.0736 -85.6817 79° East 264 304 4,800  Level Indianapolis Center
Thu 02:34:19 PM 38.0144 -85.6394 151° Southeast 258 297 8,700 2,855 Climbing Indianapolis Center
Thu 02:35:21 PM 38.0267 -85.5369 81° East 301 346 10,700 2,081 Climbing Indianapolis Center
Thu 02:36:23 PM 38.0825 -85.4481 51° Northeast 323 372 13,000 2,855 Climbing Indianapolis Center
Thu 02:37:25 PM 38.1244 -85.3097 69° East 367 422 16,600 3,048 Climbing Indianapolis Center
Thu 02:38:00 PM 38.2974 -84.8985 79° East  Level Estimated
Thu 02:38:27 PM 38.1325 -85.1683 86° East 395 455 19,300  Level Indianapolis Center
Thu 02:39:28 PM 38.1439 -85.0228 84° East 408 470 22,100 2,098 Climbing Indianapolis Center
Thu 02:40:30 PM 38.1564 -84.8681 84° East 429 494 23,600 1,790 Climbing Indianapolis Center
Thu 02:41:32 PM 38.1683 -84.7072 85° East 450 518 25,800 1,984 Climbing Indianapolis Center
Thu 02:42:34 PM 38.1814 -84.5381 84° East 476 548 27,700 2,032 Climbing Indianapolis Center
Thu 02:43:36 PM 38.1967 -84.3328 85° East 494 568 30,000 1,984 Climbing Indianapolis Center
Thu 02:44:38 PM 38.2092 -84.1511 85° East 508 585 31,800 1,935 Climbing Indianapolis Center
Thu 02:45:40 PM 38.2217 -83.9694 85° East 514 592 34,000 1,887 Climbing Indianapolis Center
Thu 02:46:42 PM 38.2333 -83.7919 85° East 507 583 35,700 1,258 Climbing Indianapolis Center
Thu 02:47:44 PM 38.2453 -83.6094 85° East 514 592 36,600 629 Climbing Indianapolis Center
Thu 02:48:46 PM 38.2561 -83.4239 86° East 522 601 37,000 194 Climbing Indianapolis Center
Thu 02:49:48 PM 38.2681 -83.2386 85° East 524 603 37,000  Level Indianapolis Center
Thu 02:50:50 PM 38.2819 -83.0217 85° East 524 603 37,000  Level Indianapolis Center
Thu 02:51:52 PM 38.2917 -82.8372 86° East 522 601 37,000  Level Indianapolis Center
Thu 02:52:53 PM 38.3031 -82.6522 85° East 524 603 37,000  Level Indianapolis Center
Thu 02:53:55 PM 38.3131 -82.4675 86° East 524 603 37,000  Level Indianapolis Center
Thu 02:54:57 PM 38.3242 -82.2831 86° East 523 602 37,000  Level Indianapolis Center
Thu 02:55:59 PM 38.3328 -82.0997 87° East 521 600 37,000  Level Indianapolis Center
Thu 02:57:01 PM 38.3450 -81.8825 86° East 516 594 37,000  Level Indianapolis Center
Thu 02:58:15 PM 38.3483 -81.6983 89° East 522 601 37,000  Level Indianapolis Center
Thu 02:59:18 PM 38.3414 -81.4800 92° East 521 600 37,000  Level Indianapolis Center
Thu 03:00:20 PM 38.3347 -81.2961 93° East 525 604 37,000  Level Indianapolis Center
Thu 03:01:22 PM 38.3283 -81.1119 92° East 525 604 37,000  Level Indianapolis Center
Thu 03:01:38 PM 38.3242 -81.0547 95° East 510 587 37,000  Level Washington Center
Thu 03:02:38 PM 38.3189 -80.8478 92° East 525 604 37,000  Level Washington Center
Thu 03:03:38 PM 38.3122 -80.6619 93° East 525 604 37,000 -300 Level Washington Center
Thu 03:04:38 PM 38.3200 -80.4772 87° East 525 604 36,400 -750 Descending Washington Center
Thu 03:05:38 PM 38.3439 -80.2961 80° East 520 598 35,500 -700 Descending Washington Center
Thu 03:06:38 PM 38.3667 -80.1333 80° East 520 598 35,000 -250 Descending Washington Center
Thu 03:07:38 PM 38.3900 -79.9575 80° East 520 598 35,000  Level Washington Center
Thu 03:08:38 PM 38.4150 -79.7786 80° East 520 598 35,000 -150 Level Washington Center
Thu 03:09:38 PM 38.4381 -79.5944 81° East 520 598 34,700 -1,450 Descending Washington Center
Thu 03:10:38 PM 38.4606 -79.4178 81° East 520 598 32,100 -2,850 Descending Washington Center
Thu 03:11:38 PM 38.4833 -79.2228 81° East 514 592 29,000 -2,200 Descending Washington Center
Thu 03:12:38 PM 38.5072 -79.0489 80° East 507 583 27,700 -1,000 Descending Washington Center
Thu 03:13:38 PM 38.5286 -78.8772 81° East 501 577 27,000 -700 Descending Washington Center
Thu 03:14:38 PM 38.5458 -78.7028 83° East 501 577 26,300 -700 Descending Washington Center
Thu 03:15:38 PM 38.5667 -78.5339 81° East 495 570 25,600 -550 Descending Washington Center
Thu 03:16:38 PM 38.5833 -78.3669 83° East 485 558 25,200 -1,150 Descending Washington Center
Thu 03:17:38 PM 38.6036 -78.2006 81° East 479 551 23,300 -2,000 Descending Washington Center
Thu 03:18:38 PM 38.6217 -78.0364 82° East 474 545 21,200 -2,100 Descending Washington Center
Thu 03:19:38 PM 38.6372 -77.8828 83° East 462 532 19,100 -1,100 Descending Washington Center
Thu 03:20:38 PM 38.6483 -77.7317 85° East 440 506 19,000 -300 Descending Washington Center
Thu 03:21:38 PM 38.6569 -77.5989 85° East 419 482 18,500 -759 Descending Washington Center
Thu 03:22:05 PM 38.6667 -77.5167 81° East 413 475 17,900 -1,655 Descending Potomac TRACON
Thu 03:23:05 PM 38.6667 -77.3833 90° East 404 465 16,100 -1,461 Descending Potomac TRACON
Thu 03:24:00 PM 38.6833 -77.2500 81° East 385 443 15,100 -1,461 Descending Potomac TRACON
Thu 03:25:00 PM 38.6833 -77.1167 90° East 383 441 13,300 -1,835 Descending Potomac TRACON
Thu 03:26:01 PM 38.7000 -76.9833 81° East 369 425 11,400 -1,587 Descending Potomac TRACON
Thu 03:27:01 PM 38.7000 -76.8500 90° East 351 404 10,100 -1,113 Descending Potomac TRACON
Thu 03:27:38 PM 38.7008 -76.7967 89° East 349 402 9,600 -990 Descending Washington Center
Thu 03:28:38 PM 38.7269 -76.6961 72° East 318 366 8,500 -1,295 Descending Washington Center
Thu 03:29:57 PM 38.7833 -76.5667 61° Northeast 290 334 6,600 -1,468 Descending Potomac TRACON
Thu 03:30:57 PM 38.8500 -76.5167 30° Northeast 281 323 5,100 -1,140 Descending Potomac TRACON
Thu 03:31:58 PM 38.9167 -76.5167 360° North 262 302 4,300 -756 Descending Potomac TRACON
Thu 03:33:04 PM 39.0000 -76.5167 360° North 247 284 3,500 -650 Descending Potomac TRACON
Thu 03:33:58 PM 39.0500 -76.5500 333° Northwest 231 266 3,000 -783 Descending Potomac TRACON
Thu 03:34:59 PM 39.0833 -76.6000 311° West 178 205 2,000 -893 Descending Potomac TRACON
Thu 03:35:59 PM 39.1167 -76.6333 322° Northwest 137 158 1,200 -750 Descending Potomac TRACON
Thu 03:36:59 PM 39.1500 -76.6500 339° North 134 154 500 -700 Descending Potomac TRACON

Login

Don't have an account? Register now (free) for customized features, flight alerts, and more!